FW3698 Weather Reports


Display with metric or nautical units.
time (UTC)temp
F
wind
direction
speed
MPH
gust
MPH
rain 1hr
in
rain 24hr
in
rain mn
in
humidity
%
barometer
mb
20260509053145 58 180 0.0 2.0 0.00 0.00 0.00 73 1021.6
20260509052123 58 58 1.0 6.0 0.00 0.00 0.00 73 1021.4
20260509051123 58 293 1.0 8.0 0.00 0.00 0.00 72 1021.5
20260509050122 58 287 1.0 6.0 0.00 0.00 0.00 73 1021.5
20260509045124 58 293 0.0 0.0 0.00 0.00 0.00 73 1021.5
20260509044124 58 292 0.0 4.0 0.00 0.00 0.00 71 1021.4
20260509043122 58 68 0.0 3.0 0.00 0.00 0.00 71 1021.2
20260509042124 58 68 1.0 7.0 0.00 0.00 0.00 72 1021.2
20260509041125 58 59 1.0 5.0 0.00 0.00 0.00 73 1021.1
20260509040143 58 23 0.0 3.0 0.00 0.00 0.00 73 1020.9
20260509035123 58 83 1.0 7.0 0.00 0.00 0.00 72 1020.9
20260509034122 59 90 0.0 3.0 0.00 0.00 0.00 72 1020.8
20260509033124 59 90 0.0 3.0 0.00 0.00 0.00 71 1020.8
20260509032145 59 80 0.0 3.0 0.00 0.00 0.00 71 1020.6
20260509031143 60 68 1.0 6.0 0.00 0.00 0.00 71 1020.5
20260509030122 60 50 1.0 4.0 0.00 0.00 0.00 70 1020.5
20260509025124 60 68 1.0 8.0 0.00 0.00 0.00 70 1020.5
20260509024122 61 49 1.0 6.0 0.00 0.00 0.00 70 1020.5
20260509023123 61 68 1.0 4.0 0.00 0.00 0.00 70 1020.4
20260509022144 62 47 1.0 8.0 0.00 0.00 0.00 69 1020.4
20260509021124 62 41 1.0 8.0 0.00 0.00 0.00 69 1020.2
20260509020123 61 18 1.0 5.0 0.00 0.00 0.00 70 1020.4
20260509015123 62 37 2.0 9.0 0.00 0.00 0.00 69 1020.4
20260509014122 62 33 1.0 8.0 0.00 0.00 0.00 68 1020.2
20260509013122 62 0 1.0 7.0 0.00 0.00 0.00 67 1020.2
20260509012123 62 32 1.0 10.0 0.00 0.00 0.00 66 1020.2
20260509011122 62 351 2.0 9.0 0.00 0.00 0.00 66 1020.2
20260509010122 62 42 2.0 9.0 0.00 0.00 0.00 66 1020.1
20260509005144 63 17 2.0 8.0 0.00 0.00 0.00 65 1020.1
20260509004122 63 6 1.0 5.0 0.00 0.00 0.00 64 1020.1
20260509003122 64 13 2.0 8.0 0.00 0.00 0.00 63 1020.0
20260509002124 64 23 2.0 8.0 0.00 0.00 0.00 63 1020.1
20260509001122 63 2 2.0 7.0 0.00 0.00 0.00 63 1020.1
20260509000122 63 31 3.0 10.0 0.00 0.00 0.00 63 1020.2
20260508235123 64 9 3.0 13.0 0.00 0.00 0.00 62 1020.2
20260508234122 66 25 3.0 10.0 0.00 0.00 0.00 61 1020.0
20260508233123 67 354 3.0 15.0 0.00 0.00 0.00 58 1019.9
20260508232145 66 352 2.0 10.0 0.00 0.00 0.00 60 1019.8
20260508231124 65 317 3.0 11.0 0.00 0.00 0.00 63 1019.8
20260508230143 64 295 3.0 8.0 0.00 0.00 0.00 63 1019.9
20260508225123 65 288 2.0 10.0 0.00 0.00 0.00 64 1019.9
20260508224143 63 321 3.0 13.0 0.00 0.00 0.00 64 1019.7
20260508223123 63 294 1.0 6.0 0.00 0.00 0.00 65 1019.6
20260508222145 63 36 2.0 8.0 0.00 0.00 0.00 67 1019.4
20260508221145 64 9 3.0 9.0 0.00 0.00 0.00 66 1019.5
20260508220122 64 12 3.0 9.0 0.00 0.00 0.00 65 1019.6
20260508215124 65 50 2.0 8.0 0.00 0.00 0.00 64 1019.6
20260508214124 66 346 2.0 11.0 0.00 0.00 0.00 65 1019.4
20260508213122 66 340 2.0 8.0 0.00 0.00 0.00 65 1019.5
20260508212123 65 3 3.0 11.0 0.00 0.00 0.00 66 1019.6
20260508211122 65 328 2.0 10.0 0.00 0.00 0.00 67 1019.4
20260508210123 64 33 2.0 11.0 0.00 0.00 0.00 67 1019.2
20260508205124 63 71 2.0 8.0 0.00 0.00 0.00 67 1019.2
20260508204122 65 46 2.0 15.0 0.00 0.00 0.00 68 1019.1
20260508203143 65 322 2.0 7.0 0.00 0.00 0.00 68 1019.1
20260508202124 62 32 2.0 8.0 0.00 0.00 0.00 72 1019.0
20260508201122 61 42 3.0 8.0 0.00 0.00 0.00 73 1018.6
20260508200145 63 24 2.0 9.0 0.00 0.00 0.00 72 1018.5
20260508195124 64 314 2.0 8.0 0.00 0.00 0.00 72 1018.5
20260508194122 63 293 3.0 9.0 0.00 0.00 0.00 72 1018.4
20260508193122 64 18 3.0 13.0 0.00 0.00 0.00 70 1018.2
20260508192124 63 9 3.0 11.0 0.00 0.00 0.00 72 1018.1
20260508191122 62 306 3.0 10.0 0.00 0.00 0.00 74 1018.0
20260508190124 61 350 3.0 12.0 0.00 0.00 0.00 77 1018.0
20260508185124 61 264 3.0 9.0 0.00 0.00 0.00 79 1018.0
20260508184124 60 289 3.0 8.0 0.00 0.00 0.00 79 1018.0
20260508183124 60 249 3.0 14.0 0.00 0.00 0.00 80 1017.8
20260508182144 60 310 2.0 7.0 0.00 0.00 0.00 79 1017.8
20260508181124 60 299 2.0 8.0 0.00 0.00 0.00 81 1017.7
20260508180122 61 268 2.0 8.0 0.00 0.00 0.00 80 1017.4
20260508175123 61 345 2.0 8.0 0.00 0.00 0.00 79 1017.4
20260508174124 60 328 2.0 10.0 0.00 0.00 0.00 80 1017.5
20260508173122 61 3 2.0 10.0 0.00 0.00 0.00 79 1017.2
20260508172124 61 311 3.0 11.0 0.00 0.00 0.00 77 1017.2
20260508171124 61 288 1.0 6.0 0.00 0.00 0.00 76 1017.1
20260508170143 61 290 2.0 8.0 0.00 0.00 0.00 77 1016.9
20260508165123 61 46 3.0 13.0 0.00 0.00 0.00 76 1016.9
20260508164143 61 348 3.0 10.0 0.00 0.00 0.00 76 1016.8
20260508163122 61 330 2.0 8.0 0.00 0.00 0.00 77 1016.6
20260508162124 61 8 1.0 8.0 0.00 0.00 0.00 78 1016.5
20260508161123 60 300 2.0 10.0 0.00 0.00 0.00 79 1016.5
20260508160122 60 21 2.0 11.0 0.00 0.00 0.00 78 1016.2
20260508155144 60 17 1.0 8.0 0.00 0.00 0.00 78 1016.2
20260508154122 60 44 1.0 7.0 0.00 0.00 0.00 77 1016.2
20260508153123 60 19 1.0 5.0 0.00 0.00 0.00 79 1016.4
20260508152124 60 11 1.0 6.0 0.00 0.00 0.00 80 1016.2
20260508151144 59 26 1.0 8.0 0.00 0.00 0.00 79 1016.2
20260508150122 60 344 1.0 7.0 0.00 0.00 0.00 77 1016.2
20260508145124 59 44 1.0 9.0 0.00 0.00 0.00 79 1016.2
20260508144124 59 23 1.0 4.0 0.00 0.00 0.00 81 1016.1
20260508143122 58 47 1.0 9.0 0.00 0.00 0.00 80 1016.1
20260508142124 58 68 1.0 8.0 0.00 0.00 0.00 80 1015.9
20260508141122 58 23 0.0 3.0 0.00 0.00 0.00 81 1015.7
20260508140122 58 273 1.0 7.0 0.00 0.00 0.00 81 1015.6
20260508135144 58 308 0.0 3.0 0.00 0.00 0.00 81 1015.6
20260508134122 58 276 0.0 4.0 0.00 0.00 0.00 82 1015.8
20260508133145 58 360 0.0 3.0 0.00 0.00 0.00 81 1015.7
20260508132124 58 270 0.0 4.0 0.00 0.00 0.00 81 1015.5
20260508131124 58 270 0.0 4.0 0.00 0.00 0.00 81 1015.6
20260508130122 58 23 0.0 0.0 0.00 0.00 0.00 81 1015.6
20260508125123 59 357 0.0 4.0 0.00 0.00 0.00 79 1015.6
20260508124122 59 338 0.0 0.0 0.00 0.00 0.00 78 1015.6
20260508123124 59 27 0.0 5.0 0.00 0.00 0.00 78 1015.4
20260508122124 59 45 0.0 3.0 0.00 0.00 0.00 78 1015.2
20260508121124 59 311 1.0 8.0 0.00 0.00 0.00 78 1015.2
20260508120122 59 347 1.0 6.0 0.00 0.00 0.00 78 1015.2
20260508115124 59 48 1.0 8.0 0.00 0.00 0.00 78 1015.2
20260508114122 58 11 1.0 6.0 0.00 0.00 0.00 78 1015.2
20260508113143 58 303 0.0 4.0 0.00 0.00 0.00 78 1015.1
20260508112145 59 318 1.0 7.0 0.00 0.00 0.00 77 1015.2
20260508111122 58 26 0.0 4.0 0.00 0.00 0.00 78 1015.0
20260508110123 58 32 2.0 8.0 0.00 0.00 0.00 78 1014.9
20260508105123 58 51 1.0 8.0 0.00 0.00 0.00 79 1014.9
20260508104122 58 45 1.0 4.0 0.00 0.00 0.00 79 1015.1
20260508103143 58 48 1.0 6.0 0.00 0.00 0.00 78 1015.2
20260508102123 58 29 0.0 7.0 0.00 0.00 0.00 78 1015.2
20260508101123 58 51 1.0 7.0 0.00 0.00 0.00 77 1015.2
20260508100124 58 42 1.0 7.0 0.00 0.00 0.00 78 1015.1
20260508095124 58 53 0.0 4.0 0.00 0.00 0.00 80 1015.1
20260508094125 58 45 0.0 4.0 0.00 0.00 0.00 80 1015.1
20260508093122 58 45 1.0 5.0 0.00 0.00 0.00 80 1015.2
20260508092124 57 45 1.0 5.0 0.00 0.00 0.00 80 1014.9
20260508091123 57 45 1.0 4.0 0.00 0.00 0.00 80 1014.8
20260508090122 57 54 1.0 4.0 0.00 0.00 0.00 80 1014.9
20260508085123 57 49 1.0 8.0 0.00 0.00 0.00 80 1014.9
20260508084122 57 45 1.0 5.0 0.00 0.00 0.00 79 1014.9
20260508083124 57 45 1.0 6.0 0.00 0.00 0.00 78 1014.9
20260508082124 57 45 0.0 4.0 0.00 0.00 0.00 78 1015.1
20260508081122 58 38 1.0 8.0 0.00 0.00 0.00 76 1015.2
20260508080124 58 45 1.0 3.0 0.00 0.00 0.00 76 1015.2
20260508075124 58 42 1.0 8.0 0.00 0.00 0.00 76 1015.2
20260508074124 59 23 1.0 5.0 0.00 0.00 0.00 76 1015.2
20260508073122 59 23 1.0 5.0 0.00 0.00 0.00 77 1015.2
20260508072124 59 23 0.0 7.0 0.00 0.00 0.00 77 1015.5
20260508071123 59 23 1.0 6.0 0.00 0.00 0.00 77 1015.5
20260508070143 59 325 1.0 8.0 0.00 0.00 0.00 78 1015.7
20260508065124 59 292 0.0 3.0 0.00 0.00 0.00 85 1015.7
20260508064122 59 270 0.0 0.0 0.00 0.00 0.00 85 1015.8
20260508063123 59 270 0.0 0.0 0.00 0.00 0.00 85 1015.8
20260508062124 60 270 0.0 0.0 0.00 0.00 0.00 85 1015.8
20260508061143 60 270 0.0 0.0 0.00 0.00 0.00 85 1015.8
20260508060144 60 270 0.0 0.0 0.00 0.00 0.00 85 1015.8
20260508055123 60 270 0.0 0.0 0.00 0.00 0.00 85 1015.8
20260508054122 60 270 0.0 0.0 0.00 0.00 0.00 84 1015.7